Regional Weather Roundup
Issued by NWS

Home | Current Version | Previous Version | Graphics & Text | Print | Product List | Glossary On
Versions: 1 2 3 4 5 6 7 8 9 10 11 12 13 14 15 16 17 18 19 20 21 22 23 24 25 26 27 28 29 30 31 32 33 34 35 36 37 38 39 40 41 42 43 44 45 46 47 48 49 50
000
ASUS43 KLOT 281804
RWRIL

ILLINOIS REGIONAL WEATHER ROUNDUP
NATIONAL WEATHER SERVICE CHICAGO/ROMEOVILLE IL
100 PM CDT SUN MAY 28 2017

NOTE: "FAIR" INDICATES FEW OR NO CLOUDS BELOW 12,000 FEET WITH NO
SIGNIFICANT WEATHER AND/OR OBSTRUCTIONS TO VISIBILITY.

* THESE STATIONS ARE NOT UNDER NWS QUALITY CONTROL. THEY ALSO MAY NOT
  REPORT WEATHER SUCH AS PRECIPITATION OR FOG.

ILZ001-002-007-009-015-016-024-281900-
NORTHWEST ILLINOIS

CITY           SKY/WX    TMP DP  RH WIND       PRES   REMARKS
MOLINE         SUNNY     75  52  44 W9G16     29.79F
6HR MIN TEMP:  63; 6HR MAX TEMP:  76;

STERLING*      SUNNY     72  57  59 NW9       29.79F
SAVANNA*       SUNNY     72  51  48 W3        29.78F
$$

ILZ003-004-008-010-011-017-018-281900-
NORTH CENTRAL ILLINOIS

CITY           SKY/WX    TMP DP  RH WIND       PRES   REMARKS
ROCKFORD       MOSUNNY   70  56  61 NW8       29.78F
6HR MIN TEMP:  59; 6HR MAX TEMP:  71; 6HR PCP:  0.50;

FREEPORT*      MOSUNNY   68  55  62 NW3       29.79F
ROCHELLE*      MOSUNNY   69  57  65 NW10      29.79S
DE KALB*       PTSUNNY   69  59  69 NW8       29.78S
PERU*          MOSUNNY   70  56  60 NW12G17   29.79S
$$

ILZ005-006-012>014-019>023-281900-
NORTHEAST ILLINOIS

CITY           SKY/WX    TMP DP  RH WIND       PRES   REMARKS
CHICAGO-OHARE  PTSUNNY   74  58  57 NW5       29.73S
6HR MIN TEMP:  61; 6HR MAX TEMP:  74; 6HR PCP: TRACE;

CHICAGO-MIDWAY CLOUDY    75  61  61 NW6       29.72S
6HR MIN TEMP:  61; 6HR MAX TEMP:  76;

AURORA         CLOUDY    71  61  70 NW12      29.77R
6HR MIN TEMP:  61; 6HR MAX TEMP:  72;

LANSING*       LGT RAIN  69  62  79 NE13      29.74S
JOLIET*        PTSUNNY   76  62  60 W5        29.74S
WAUKEGAN       PTSUNNY   67  60  78 VRB6      29.74S
6HR MIN TEMP:  60; 6HR MAX TEMP:  68;

DUPAGE AIRPORT CLOUDY    69  61  75 NW13      29.75R
6HR MIN TEMP:  59; 6HR MAX TEMP:  72; 6HR PCP: TRACE;

KANKAKEE*      PTSUNNY   78  61  54 W5        29.75S HX  80
WHEELING       CLOUDY    70  62  76 NW13      29.75S
6HR MIN TEMP:  58; 6HR MAX TEMP:  73; 6HR PCP: TRACE;

MORRIS*        PTSUNNY   74  61  65 NW12G17   29.74R
ROMEOVILLE*    CLOUDY    76  64  66 W9        29.74S
NORTHERLY ISL    N/A     60  54  80 N9          N/A
$$

LMZ740>746-281900-
SOUTHERN LAKE MICHIGAN

STATION/POSITION SKY/WX   TEMP    WIND        PRES    VSBY  WAVE
                          AIR SEA DIR/SP/G                  HT/PER
                          (F)     (DEG/KT/KT) (MB)    (MI)  (FT/S)
SOUTHERN BUOY              52 49   30/ 10/ 12 1007.2          0
WILMETTE HARBOR            53 54                N/A           1
HARRISON CRIB              56     350/  5/  7   N/A
BURNHAM HARBOR             59     360/  8/ 13   N/A
CALUMET HARBOR             61     360/  8/ 12 1006.9F
BURNS HARBOR               59      60/ 10/ 11 1008.1R
MICHIGAN CITY              56      20/  7/  9   N/A
MICHIGAN CITY 6N           54 56   60/  6/ 10   N/A           1
ST. JOSEPH                 58 59   60/ 10/ 12 1007.4F         1
$$

ILZ025>027-034>036-040-047-049-050-058-095>099-281900-
WEST-CENTRAL ILLINOIS

CITY           SKY/WX    TMP DP  RH WIND       PRES   REMARKS
QUINCY         MOSUNNY   75  56  51 W10       29.85F
GALESBURG*     SUNNY     74  54  49 W12G21    29.81S
MACOMB*        MOSUNNY   74  54  48 NW14      29.85S
JACKSONVILLE*  PTSUNNY   75  58  56 NW15      29.82S
PITTSFIELD*    MOSUNNY   75  58  55 NW10G18   29.86R
$$

ILZ028>032-037-038-041>044-048-051>054-059>061-281900-
CENTRAL ILLINOIS

CITY           SKY/WX    TMP DP  RH WIND       PRES   REMARKS
PONTIAC        PTSUNNY   75  66  73 W14       29.77S
BLOOMINGTON    PTSUNNY   75  61  61 NW13      29.80R
DECATUR        PTSUNNY   76  64  66 NW10      29.79S
PEORIA         CLOUDY    75  55  49 VRB6      29.81R
6HR MIN TEMP:  64; 6HR MAX TEMP:  75;

LACON*         PTSUNNY   72  58  60 NW10G17   29.79R
LINCOLN*       PTSUNNY   78  62  58 NW8       29.79S
SPRINGFIELD    MOSUNNY   78  61  55 NW14      29.81S HX  80
6HR MIN TEMP:  63; 6HR MAX TEMP:  78;

TAYLORVILLE    CLOUDY    73  63  71 NW12      29.81F
6HR MIN TEMP:  63; 6HR MAX TEMP:  73;

$$

ILZ033-039-045-046-055>057-062-063-281900-
EAST-CENTRAL ILLINOIS

CITY           SKY/WX    TMP DP  RH WIND       PRES   REMARKS
CHAMPAIGN      CLOUDY    77  62  59 W18       29.76F
RANTOUL*       PTSUNNY   78  66  65 NW12G18   29.76R HX  80
MATTOON        PTSUNNY   74  66  76 W13G22    29.78F
PARIS*         CLOUDY    74  65  74 W13       29.78F
$$

ILZ079-100>102-281900-
SOUTHWEST ILLINOIS

CITY           SKY/WX    TMP DP  RH WIND       PRES   REMARKS
ALTON          PTSUNNY   70  64  83 W12       29.85F
BELLEVILLE     MOSUNNY   69  63  82 W12       29.86S
CAHOKIA*       CLOUDY    69  63  81 W7        29.86R
SPARTA*        CLOUDY    71  64  78 W12G21    29.86S
$$

ILZ064>066-069>071-074>076-080>082-084>086-088>090-092>094-281900-
SOUTH-CENTRAL ILLINOIS

CITY           SKY/WX    TMP DP  RH WIND       PRES   REMARKS
CARBONDALE     PTSUNNY   76  65  68 W13G21    29.84S
6HR MIN TEMP:  64; 6HR MAX TEMP:  76;

CAIRO*         CLOUDY    71  64  79 W12G21    29.88R
EFFINGHAM*     CLOUDY    74  66  76 W15G22    29.81F
MARION         CLOUDY    73  66  78 W9G16     29.85S
MT. VERNON       N/A     75  65  70 W9G17     29.82S
SALEM*         CLOUDY    72  64  76 W14       29.83S
$$

ILZ067-068-072-073-078-083-087-091-281900-
SOUTHEAST ILLINOIS

CITY           SKY/WX    TMP DP  RH WIND       PRES   REMARKS
LAWRENCEVILLE  CLOUDY    74  63  68 W14       29.79F
FLORA*         CLOUDY    75  64  70 W17G23    29.81S
FAIRFIELD*     CLOUDY    75  63  66 W5        29.80S
HARRISBURG*    CLOUDY    73  65  74 W16G22    29.84F
ROBINSON*      CLOUDY    74  63  70 W14       29.79F
CARMI*         PTSUNNY   75  65  69 W12       29.82S
$$

ABBREVIATIONS USED IN REMARKS
   TC - TEMPERATURE IN CELSIUS
  WCI - WIND CHILL INDEX
   HX - HEAT INDEX
  VSB - VISIBILITY
$$





USA.gov is the U.S. government's official web portal to all federal, state and local government web resources and services.